Regional Weather Roundup
Issued by NWS Little Rock, AR

Home | Current Version | Previous Version | Graphics & Text | Print | Product List | Glossary On
Versions: 1 2 3 4 5 6 7 8 9 10 11 12 13 14 15 16 17 18 19 20 21 22 23 24 25 26 27 28 29 30 31 32 33 34 35 36 37 38 39 40 41 42 43 44 45 46 47 48 49
000
ASUS44 KLZK 280305
RWRLZK

WEATHER ROUNDUP FOR ARKANSAS
NATIONAL WEATHER SERVICE LITTLE ROCK AR
900 PM CST SAT DEC 27 2014

NOTE: "FAIR" INDICATES FEW OR NO CLOUDS BELOW 12,000 FEET WITH NO
SIGNIFICANT WEATHER AND/OR OBSTRUCTIONS TO VISIBILITY.

ARZ001-003-010-029-280400-
NORTHWEST ARKANSAS

CITY           SKY/WX    TMP DP  RH WIND       PRES   REMARKS
FAYETTEVILLE   CLOUDY    30  28  92 N6        30.26R WCI  24
FORT SMITH     CLOUDY    35  31  85 W9        30.27R WCI  28
HARRISON       CLOUDY    32  30  92 NW8       30.21F WCI  25
BENTONVILLE    PTCLDY    30  25  80 N3        30.26R
ROGERS         MOCLDY    28  26  92 NW6       30.26R WCI  22
SILOAM SPGS    CLEAR     27  21  80 N5        30.27F WCI  21
HIGHFILL       PTCLDY    28  25  88 N6        30.25S WCI  22
SPRINGDALE     CLOUDY    30  27  86 N13       30.27R WCI  20
$$

ARZ004-005-016-280400-
NORTH CENTRAL ARKANSAS

CITY           SKY/WX    TMP DP  RH WIND       PRES   REMARKS
BATESVILLE     CLOUDY    39  37  93 NW9G17    30.19R
FLIPPIN        CLOUDY    36  30  80 NW5       30.21F
MTN HOME       CLOUDY    34  34 100 VRB5      30.21S WCI  30
$$

ARZ040-041-280400-
WEST CENTRAL ARKANSAS

CITY           SKY/WX    TMP DP  RH WIND       PRES   REMARKS
MENA           CLOUDY    37  36  93 N5        30.22R
MOUNT IDA      CLOUDY    37  35  92 NW6       30.17R
$$

ARZ009-017-025-026-028-280400-
NORTHEAST ARKANSAS

CITY           SKY/WX    TMP DP  RH WIND       PRES   REMARKS
CORNING        CLOUDY    43  41  93 N13       30.18R
JONESBORO      CLOUDY    44  43  96 NW9       30.16R
NEWPORT        LGT RAIN  42  41  97 N16       30.18R
WALNUT RIDGE   CLOUDY    43  37  81 NW15      30.17R
BLYTHEVILLE    LGT RAIN  45  44  97 N16       30.14F
$$

ARZ022-023-033-042-044-280400-
CENTRAL ARKANSAS

CITY           SKY/WX    TMP DP  RH WIND       PRES   REMARKS
LITTLE ROCK    CLOUDY    44  40  85 NW14G21   30.18R
N LITTLE ROCK  CLOUDY    41  41  99 N12G21    30.18R
JACKSONVILLE   CLOUDY    43  42  97 NW9       30.18R
SEARCY         CLOUDY    42  40  92 N9        30.18R
HOT SPRINGS    CLOUDY    43  41  93 NW5       30.18S
RUSSELLVILLE   CLOUDY    42  39  89 NW7       30.20S
CLINTON        CLOUDY    37  36  93 N3        30.21F
$$

ARZ036-280400-
EAST ARKANSAS

CITY           SKY/WX    TMP DP  RH WIND       PRES   REMARKS
WEST MEMPHIS   LGT RAIN  47  47 100 N14       30.11F
$$

ARZ050-053-066-070-073-280400-
SOUTHWEST ARKANSAS

CITY           SKY/WX    TMP DP  RH WIND       PRES   REMARKS
ARKADELPHIA    MOCLDY    45  45 100 NW5       30.20R
CAMDEN         LGT RAIN  46  45  93 MISG      30.17R
TEXARKANA      CLOUDY    44  43  96 NW9       30.19R
EL DORADO      CLOUDY    47  45  93 N8        30.16R
DE QUEEN       CLOUDY    39  37  92 NW7       30.21R
$$

ARZ056-057-069-280400-
SOUTHEAST ARKANSAS

CITY           SKY/WX    TMP DP  RH WIND       PRES   REMARKS
PINE BLUFF     LGT RAIN  45  42  89 N8        30.15S
STUTTGART      CLOUDY    45  43  93 N12       30.15R
MONTICELLO     LGT RAIN  47  44  90 VRB6      30.14R FOG

$$




USA.gov is the U.S. government's official web portal to all federal, state and local government web resources and services.